Flag for Greece Weather past 2 weeks in Keratsini, Greece

Now
68 °F

Passing clouds.


Feels Like: 68 °F
Forecast: 69 / 78 °F
Wind: No wind

Location: Elefsis Airport

Current Time: Sep 17, 2014 at 5:32:23 AM

Latest Report: Sep 17, 2014 at 4:50 AM


Visibility: N/A

Pressure: 29.86 "Hg

Humidity: 78%

Dew point: 61 °F

Location of KeratsiniLocation

Historic Weather in Keratsini — Graph

°F

Keratsini temperature yesterday

Maximum temperature yesterday: 86 °F (at 3:20 PM)
Minimum temperature yesterday: 68 °F (at 4:50 AM)
Average temperature yesterday: 75 °F

Past Weeks' High & Low Weather Summary

 TemperatureHumidityPressure
High90 °F (Sep 5, 3:50 PM)100% (Sep 8, 12:50 AM)29.98 "Hg (Sep 8, 12:50 AM)
Low64 °F (Sep 11, 5:50 AM)27% (Sep 11, 4:20 PM)29.62 "Hg (Sep 2, 4:20 PM)
Average78 °F59%29.84 "Hg
* Reported Sep 2 3:20 AM — Sep 17 3:50 AM, Keratsini, Weather by CustomWeather, © 2014

Note: Actual official high and low records may vary slightly from our data, if they occured in-between our weather recording intervals... More about our weather records

Advertising

Keratsini weather history for previous 24 hours

 ConditionsComfort  
Time TempWeatherWind HumidityBarometerVisibility
3:50 AM
Sep 17
68 °FPassing clouds.No wind78%29.86 "HgN/A
3:20 AM68 °FPassing clouds.No wind78%29.86 "HgN/A
2:50 AM66 °FPassing clouds.No wind83%29.86 "HgN/A
2:20 AM68 °FPassing clouds.No wind78%29.86 "HgN/A
1:50 AM68 °FPassing clouds.No wind78%29.86 "HgN/A
1:20 AM68 °FPassing clouds.No wind78%29.86 "HgN/A
12:50 AM68 °FPassing clouds.No wind78%29.86 "HgN/A
12:20 AM68 °FPassing clouds.No wind78%29.89 "HgN/A
11:50 PM
Sep 16
70 °FPassing clouds.No wind78%29.89 "HgN/A
11:20 PM70 °FPassing clouds.No wind78%29.89 "HgN/A
10:50 PM73 °FPassing clouds.No wind74%29.86 "HgN/A
10:20 PM72 °FPassing clouds.No wind83%29.86 "HgN/A
9:50 PM73 °FPassing clouds.No wind69%29.86 "HgN/A
9:20 PM73 °FPassing clouds.No wind69%29.86 "HgN/A
8:50 PM73 °FPassing clouds.No wind69%29.86 "HgN/A
8:20 PM73 °FScattered clouds.No wind69%29.86 "HgN/A
7:50 PM73 °FPassing clouds.No wind69%29.86 "HgN/A
6:50 PM75 °FScattered clouds.No wind65%29.83 "HgN/A
6:20 PM75 °FScattered clouds.No wind65%29.83 "HgN/A
5:50 PM73 °FScattered clouds.No wind69%29.83 "HgN/A
5:20 PM70 °FBroken clouds.8 mph78%29.86 "HgN/A
4:50 PM68 °FThunderstorms. Broken clouds.No wind83%29.86 "Hg4 mi
4:20 PM75 °FThunderstorms. Broken clouds.12 mph57%29.83 "HgN/A
3:50 PM79 °FThunderstorms. Broken clouds.17 mph48%29.83 "HgN/A
3:20 PM86 °FScattered clouds.6 mph35%29.83 "HgN/A
2:50 PM82 °FScattered clouds.No wind35%29.83 "HgN/A
2:20 PM79 °FThunderstorms. Partly sunny.8 mph45%29.83 "HgN/A
1:50 PM84 °FThunderstorms. Partly sunny.10 mph45%29.83 "HgN/A
1:20 PM82 °FScattered clouds.5 mph40%29.83 "HgN/A
12:50 PM84 °FScattered clouds.No wind37%29.86 "HgN/A
12:20 PM84 °FScattered clouds.6 mph43%29.86 "HgN/A
11:50 AM82 °FScattered clouds.7 mph45%29.86 "HgN/A
11:20 AM81 °FScattered clouds.8 mph51%29.86 "HgN/A
10:50 AM81 °FPassing clouds.7 mph51%29.86 "HgN/A
10:20 AM79 °FPassing clouds.6 mph54%29.86 "HgN/A
9:50 AM79 °FPassing clouds.9 mph58%29.86 "HgN/A
9:20 AM77 °FPassing clouds.7 mph61%29.86 "HgN/A
8:50 AM75 °FPassing clouds.6 mph65%29.86 "HgN/A
8:20 AM72 °FPassing clouds.No wind73%29.86 "HgN/A
7:50 AM72 °FPassing clouds.No wind73%29.86 "HgN/A
7:20 AM70 °FPassing clouds.No wind78%29.86 "HgN/A
6:50 AM70 °FPassing clouds.No wind78%29.86 "HgN/A
6:20 AM70 °FPassing clouds.No wind73%29.83 "HgN/A
5:50 AM70 °FPassing clouds.No wind73%29.83 "HgN/A
5:20 AM68 °FPassing clouds.No wind78%29.83 "HgN/A
Weather by CustomWeather, © 2014

See weather overviewHow to use our weather pages